TimeEST,TemperatureF,Dew PointF,Humidity,Sea Level PressureIn,VisibilityMPH,Wind Direction,Wind SpeedMPH,Gust SpeedMPH,PrecipitationIn,Events,Conditions,WindDirDegrees,DateUTC
12:53 AM,72.0,69.1,91,30.01,10.0,South,4.6,-,N/A,,Partly Cloudy,180,2013-01-31 05:53:00
1:53 AM,71.1,69.1,93,30.01,10.0,South,4.6,-,N/A,,Clear,180,2013-01-31 06:53:00
2:53 AM,71.1,69.1,93,29.99,10.0,South,4.6,-,N/A,,Clear,180,2013-01-31 07:53:00
3:53 AM,72.0,70.0,93,29.98,10.0,South,5.8,-,N/A,,Clear,180,2013-01-31 08:53:00
4:53 AM,72.0,69.1,91,29.99,7.0,South,4.6,-,N/A,,Partly Cloudy,190,2013-01-31 09:53:00
5:53 AM,71.1,69.1,93,29.99,8.0,South,4.6,-,N/A,,Partly Cloudy,180,2013-01-31 10:53:00
6:53 AM,72.0,70.0,93,30.01,8.0,South,4.6,-,N/A,,Partly Cloudy,180,2013-01-31 11:53:00
7:53 AM,73.9,71.1,91,30.03,10.0,South,6.9,-,N/A,,Mostly Cloudy,190,2013-01-31 12:53:00
8:53 AM,75.0,71.1,87,30.07,10.0,SW,9.2,-,N/A,,Mostly Cloudy,230,2013-01-31 13:53:00
9:11 AM,73.4,68.0,83,30.09,10.0,NW,12.7,20.7,N/A,,Overcast,310,2013-01-31 14:11:00
9:17 AM,66.2,62.6,88,30.10,10.0,NW,11.5,23.0,N/A,,Overcast,320,2013-01-31 14:17:00
9:28 AM,66.2,60.8,83,30.10,10.0,NNW,12.7,20.7,N/A,,Overcast,340,2013-01-31 14:28:00
9:53 AM,66.0,62.1,87,30.11,10.0,NNW,8.1,-,N/A,,Overcast,340,2013-01-31 14:53:00
10:27 AM,66.2,62.6,88,30.11,10.0,NNW,8.1,-,N/A,,Overcast,330,2013-01-31 15:27:00
10:37 AM,66.2,60.8,83,30.12,10.0,NW,11.5,19.6,N/A,,Overcast,320,2013-01-31 15:37:00
10:53 AM,66.9,61.0,81,30.13,10.0,NW,10.4,18.4,N/A,,Overcast,320,2013-01-31 15:53:00
11:49 AM,69.8,60.8,73,30.12,10.0,North,8.1,-,N/A,,Mostly Cloudy,350,2013-01-31 16:49:00
11:53 AM,70.0,61.0,73,30.12,10.0,NNW,8.1,-,N/A,,Mostly Cloudy,330,2013-01-31 16:53:00
12:53 PM,72.0,61.0,68,30.09,10.0,NNW,9.2,-,N/A,,Mostly Cloudy,340,2013-01-31 17:53:00
1:53 PM,73.0,61.0,66,30.07,10.0,NNW,9.2,-,N/A,,Mostly Cloudy,330,2013-01-31 18:53:00
2:53 PM,70.0,60.1,71,30.06,10.0,Calm,Calm,-,N/A,,Mostly Cloudy,0,2013-01-31 19:53:00
3:53 PM,68.0,57.9,70,30.09,10.0,Variable,5.8,-,N/A,,Overcast,0,2013-01-31 20:53:00
4:53 PM,66.0,55.9,70,30.10,10.0,NNW,9.2,-,N/A,,Mostly Cloudy,330,2013-01-31 21:53:00
5:53 PM,66.0,55.0,68,30.11,10.0,NNW,6.9,-,N/A,,Mostly Cloudy,340,2013-01-31 22:53:00
6:53 PM,66.2,51.8,60,30.13,10.0,North,6.9,-,N/A,,Mostly Cloudy,350,2013-01-31 23:53:00
7:53 PM,66.9,53.1,61,30.15,10.0,NNW,3.5,-,N/A,,Mostly Cloudy,330,2013-02-01 00:53:00
8:53 PM,66.0,53.1,63,30.16,10.0,Variable,3.5,-,N/A,,Scattered Clouds,0,2013-02-01 01:53:00
9:53 PM,66.0,52.0,60,30.18,10.0,North,5.8,-,N/A,,Partly Cloudy,350,2013-02-01 02:53:00
10:53 PM,64.9,51.1,61,30.18,10.0,NW,9.2,-,N/A,,Mostly Cloudy,320,2013-02-01 03:53:00
11:53 PM,63.0,42.1,46,30.18,10.0,North,8.1,-,N/A,,Mostly Cloudy,350,2013-02-01 04:53:00